sat.trackr.live / text

‹ back to catalog

STARLINK-34963

NORAD 65242 · 2025-179H

PAYLOAD ACTIVE UNKNOWN

§ Identity

Operator
Country
US
Launch date
2025-08-18
Launch site
AFWTR
Launch vehicle
Mass (kg)
RCS (m²)

Purposes: comms

External: N2YO · Heavens-Above · Gunter

§ Orbital elements

Epoch: 2026-05-25T03:09:13.438656Z

Period
95.64 min
Inclination
97.4492°
Eccentricity
0.0001731
Mean motion
15.05646179 rev/d
Perigee alt
548.3 km
Apogee alt
550.7 km
Semi-major
6,927.7 km
B*
3.3365e-5
RAAN
187.9940°
Arg perigee
134.3577°
Mean anomaly
225.7792°
Rev number
4,347

§ Raw data

STARLINK-349631 65242U 25179H   26145.13140554  .00000423  00000+0  33365-4 0  99962 65242  97.4492 187.9940 0001731 134.3577 225.7792 15.05646179 43472

JSON: /api/v1/satellites/65242 · /tle

For live sub-satellite position, see the globe view (requires WebGL).

§ Visibility from observer

Set your observer location to see the next 7 days of passes ≥ 10°. The values pass through the URL so the page stays shareable.

No JS? Fill the form by hand. The geolocation button needs JavaScript.